• Processing (Info)

  • MPEC 2022-P33 : 2022 OF6

    The following Minor Planet Electronic Circular may be linked-to from your own Web pages, but must not otherwise be redistributed electronically.

    A form allowing access to any MPEC is at the bottom of this page.


    Read MPEC 2022-P32 Read MPEC 2022-P34


    M.P.E.C. 2022-P33                                Issued 2022 August 3, 00:38 UT
    
         The Minor Planet Electronic Circulars contain information on unusual
             minor planets and routine data on comets.  They are published
        on behalf of Division F of the International Astronomical Union by the
              Minor Planet Center, Smithsonian Astrophysical Observatory,
                              Cambridge, MA 02138, U.S.A.
    
                 Prepared using the Tamkin Foundation Computer Network
    
                                  MPC@CFA.HARVARD.EDU
                URL https://www.minorplanetcenter.net/    ISSN 1523-6714
    
                                    2022 OF6                                 
    
    
    Observations:
         K22O06F* C2022 07 26.38850920 16 21.459-14 42 38.12         21.62wUEP033F52
         K22O06F  C2022 07 26.40058620 16 20.485-14 42 42.76         21.86wUEP033F52
         K22O06F  C2022 07 26.41269420 16 19.517-14 42 47.24         21.70wUEP033F52
         K22O06F  C2022 07 26.42479620 16 18.538-14 42 51.66         21.76wUEP033F52
         K22O06F  C2022 07 26.51949920 16 10.935-14 43 27.10         21.71GVEP033F52
         K22O06F  C2022 07 26.52013020 16 10.897-14 43 27.19         21.77GVEP033F52
         K22O06F  C2022 07 26.52076020 16 10.845-14 43 27.34         21.33GVEP033F52
         K22O06F ^C2022 07 27.36423920 15 06.979-14 48 46.88         21.21GVEP033568
         K22O06F ^C2022 07 27.36521620 15 06.901-14 48 47.26         21.22GVEP033568
         K22O06F ^C2022 07 27.36619720 15 06.821-14 48 47.61         21.24GVEP033568
         K22O06F |C2022 07 29.11103 20 12 51.92 -14 59 55.7          20.8 GVEP033807
         K22O06F |C2022 07 29.11843 20 12 51.32 -14 59 58.4          21.2 GVEP033807
         K22O06F |C2022 07 29.12585 20 12 50.70 -15 00 01.2          21.0 GVEP033807
         K22O06F |C2022 08 02.16648 20 07 33.26 -15 27 19.7          21.1 GVEP033807
         K22O06F |C2022 08 02.17387 20 07 32.59 -15 27 21.8          21.0 GVEP033807
         K22O06F |C2022 08 02.18127 20 07 32.02 -15 27 24.8          21.4 GVEP033807
    
    Observer details:
    568 Mauna Kea.  Observers R. Wainscoat, A. Acohido, T. Burdullis.  Measurers
        R. Weryk, R. Wainscoat.  3.6-m Canada-France-Hawaii Telescope + CCD.
    807 Cerro Tololo Observatory, La Serena.  Observers T. Linder, R. Holmes, L.
        Horn.  1.00-m f/10.0 astrograph + CCD.
    F52 Pan-STARRS 2, Haleakala.  Observers J. Bulger, T. Lowe, A. Schultz, I.
        Smith, K. Chambers, T. Dukes.  Measurers K. Chambers, S. Chastel, T. de
        Boer, J. Fairlamb, H. Gao, M. Huber, C.-C. Lin, E. Magnier, Y.
        Ramanjooloo, R. Wainscoat, R. Weryk.  1.8-m Ritchey-Chretien + CCD.
    
    Orbital elements:
    2022 OF6                                                 Earth MOID = 0.2902 AU
    Epoch 2022 Aug. 9.0 TT = JDT 2459800.5                  Veres                   
    M 308.07021              (2000.0)            P               Q                  
    n   0.34680303     Peri.  244.25940     +0.74466454     -0.66693462             
    a   2.0063843      Node   157.54208     +0.63411775     +0.69482635             
    e   0.3651948      Incl.    3.89381     +0.20825320     +0.26909954             
    P   2.84           H   20.39          G   0.15           U   8                  
    Residuals in seconds of arc
    220726 F52  0.3+  0.1-    220726 F52  0.2+  0.0     220729 807  0.0   0.2+
    220726 F52  0.2+  0.2-    220727 568  0.0   0.0     220802 807 (0.5+  1.0-)
    220726 F52  0.2+  0.1-    220727 568  0.0   0.0     220802 807  0.3-  0.1-
    220726 F52  0.1+  0.0     220727 568  0.0   0.0     220802 807  0.3+  0.0
    220726 F52  0.0   0.2-    220729 807  0.1+  0.2-
    220726 F52  0.2+  0.1-    220729 807  0.2+  0.0
    
    Ephemeris:
    2022 OF6                 a,e,i = 2.01, 0.37, 4                   q = 1.2737
    Date    TT    R. A. (2000) Decl.     Delta      r    Elong.  Phase     V
    2022 07 04    20 38 28.6 -13 04 46   0.9859  1.9460   152.7    13.9    22.6
    ...
    2022 07 19    20 25 12.5 -14 00 21   0.8683  1.8767   169.5     5.7    21.9
    ...
    2022 07 27    20 15 34.7 -14 46 22   0.8253  1.8392   175.0     2.7    21.6
    ...
    2022 08 02    20 07 46.4 -15 26 12   0.8025  1.8109   170.2     5.5    21.6
    2022 08 03    20 06 27.6 -15 33 09   0.7995  1.8061   169.1     6.1    21.7
    2022 08 04    20 05 08.9 -15 40 09   0.7967  1.8014   167.9     6.8    21.7
    ...
    2022 08 10    19 57 27.6 -16 23 00   0.7844  1.7729   160.6    10.9    21.8
    ...
    2022 08 18    19 48 16.0 -17 20 02   0.7792  1.7348   150.8    16.5    21.9
    ...
    2022 09 02    19 37 18.6 -18 55 52   0.7979  1.6635   133.7    26.0    22.2
    
    M. P. C. Staff               (C) Copyright 2022 MPC           M.P.E.C. 2022-P33
    


    Read MPEC 2022-P32 Read MPEC 2022-P34


    MPEC number:

    Enter an MPEC number in one of the following forms:

    • 1997-B01 (the full form)
    • J97B01 (the packed version of the full form)
    • B01 (the abbreviated form)